User: anonymous   Login
Location: Brno
(49.2000°N, 16.6330°E)
Time: 13:53:50
(UTC+01:00)
Language:

Cosmos 2227 - Orbit

View from above orbital plane
View from above orbital plane
View from above satellite
View from above satellite

Ground track
Ground track

The orbit data is extracted from the following two-line orbital elements,

1 22284U 92093A   14302.94837001 -.00000229  00000-0 -96768-4 0   124
2 22284 070.9800 090.4602 0018740 197.8064 298.6972 14.13191619126840
Epoch (UTC): 29 October 2014 22:45:39
Eccentricity: 0.0018740
inclination: 70.9800°
perigee height: 835 km
apogee height: 862 km
right ascension of ascending node: 90.4602°
argument of perigee: 197.8064°
revolutions per day: 14.13191619
mean anomaly at epoch: 298.6972°
orbit number at epoch: 12684

The dashed part of the orbit path shows where the satellite is in the earth's shadow,  

DLR